LUCH (OLYMP-K 1)

Last updated on Thu Oct 30 2025 00:02:49 GMT+0000 (Coordinated Universal Time)

1 40258U 14058A 25302.68560500 -.00000142 00000+0 00000+0 0 9995 2 40258 1.2908 85.4094 0003892 125.8315 76.1697 0.99120329 38684
UTC large
Height (km)
Speed (km/s)
/
Latitude / Longitude
Inclination (degrees)
Orbital Period (minutes)
Azimuth
Elevation
Range (km)
Doppler Factor

Next 0 passes for location: London (51.5072 / 0.1276)

Sorry there are no passes over London.